#timestamp,LO_Frequency,Hit 
1502244015.9,286047026.8,N
1502244035.7,286047026.5,N
1502244055.6,286047026.5,N
1502244075.4,286047026.4,N
1502244095.2,286047023.8,N
1502244115.1,286047023.7,N
1502244116.0,286047023.7,N
1502244135.8,286047024.2,N
1502244155.6,286047024.2,N
1502244175.4,286047025.8,N
1502244195.3,286047024.2,N
1502244215.1,286047026.2,N
1502244235.8,286047030.0,N
1502244255.7,286047028.0,N
1502244275.5,286047028.3,N
1502244295.3,286047025.7,N
1502244315.2,286047025.7,N
1502244335.9,286047025.9,N
1502244355.7,286047026.2,N
1502244375.6,286047027.3,N
1502244395.4,286047029.1,N
1502244415.2,286047028.5,N
1502244435.0,286047030.0,N
1502244436.0,286047030.0,N
1502244455.8,286047026.5,N
1502244475.6,286047025.8,N
1502244495.4,286047023.7,N
1502244515.3,286047025.3,N
1502244535.1,286047027.1,N
1502244555.8,286047025.3,N
1502244575.7,286047027.9,N
1502244595.5,286047029.3,N
1502244615.3,286047034.6,N
1502244635.2,286047031.7,N
1502244655.9,286047034.8,N
1502244675.7,286047032.6,N
1502244695.6,286047034.8,N
1502244715.4,286047031.7,N
1502244735.2,286047034.5,N
1502244755.0,286047034.2,N
1502244755.9,286047034.2,N
1502244775.8,286047032.9,N
1502244795.6,286047032.6,N
1502244815.4,286047031.3,N
1502244835.3,286047031.1,N
1502244855.1,286047029.7,N
1502244856.0,286047029.7,N
1502244875.8,286047029.5,N
1502244895.7,286047030.2,N
1502244915.5,286047034.1,N
1502244935.3,286047034.0,N
1502244955.2,286047036.2,N
1502244975.9,286047031.9,N
1502244995.7,286047030.3,N
1502245015.5,286047031.3,N
1502245035.4,286047031.9,N
1502245055.2,286047035.7,N
1502245075.0,286047033.4,N
1502245075.9,286047033.4,N
1502245095.8,286047034.2,N
1502245115.6,286047032.5,N
1502245135.4,286047034.5,N
1502245155.3,286047034.0,N
1502245175.1,286047035.1,N
1502245176.0,286047035.1,N
1502245195.8,286047038.0,N
1502245215.7,286047038.1,N
1502245235.5,286047039.8,N
1502245255.3,286047039.9,N
1502245275.1,286047038.1,N
1502245295.9,286047042.6,N
1502245315.7,286047041.0,N
1502245335.5,286047039.6,N
1502245355.4,286047039.5,N
1502245375.2,286047037.8,N
1502245395.0,286047037.6,N
1502245395.9,286047037.6,N
1502245415.8,286047039.5,N
1502245435.8,286047036.6,N
1502245455.6,286047039.3,N
1502245475.4,286047037.0,N
1502245495.3,286047037.6,N
1502245515.1,286047037.1,N
1502245535.8,286047038.5,N
1502245555.7,286047038.8,N
1502245575.5,286047036.6,N
1502245595.3,286047038.6,N
1502245615.2,286047036.9,N
1502245635.9,286047036.5,N
1502245655.3,286047038.0,N
1502245675.2,286047035.0,N
1502245695.9,286047035.0,N
1502245715.7,286047037.2,N
1502245735.6,286047036.9,N
1502245755.4,286047035.7,N
1502245775.2,286047035.4,N
1502245795.0,286047036.1,N
1502245796.0,286047036.1,N
1502245815.8,286047039.1,N
1502245835.6,286047039.1,N
1502245855.4,286047038.7,N
1502245875.3,286047039.4,N
1502245895.1,286047038.9,N
1502245915.8,286047038.1,N
1502245935.7,286047040.6,N
1502245955.5,286047039.3,N
1502245975.3,286047039.4,N
1502245995.1,286047037.1,N
1502245996.0,286047037.1,N
1502246015.8,286047036.9,N
1502246035.7,286047036.9,N
1502246055.5,286047037.3,N
1502246075.3,286047037.2,N
1502246095.1,286047036.8,N
1502246115.9,286047035.0,N
1502246135.7,286047040.3,N
1502246155.5,286047041.1,N
1502246175.4,286047039.3,N
1502246195.2,286047036.6,N
1502246215.0,286047039.1,N
1502246215.9,286047039.1,N
1502246235.8,286047038.8,N
1502246255.6,286047039.6,N
1502246275.5,286047039.2,N
1502246295.3,286047038.9,N
1502246315.1,286047038.3,N
1502246335.9,286047038.9,N
1502246355.7,286047038.9,N
1502246375.5,286047038.4,N
1502246395.3,286047040.7,N
1502246415.2,286047040.5,N
1502246435.0,286047039.7,N
1502246435.9,286047039.7,N
1502246455.7,286047042.6,N
1502246475.6,286047042.3,N
1502246495.4,286047042.6,N
1502246515.2,286047040.6,N
1502246535.1,286047039.0,N
1502246536.0,286047039.0,N
1502246555.8,286047040.7,N
1502246575.6,286047039.8,N
1502246595.5,286047040.3,N
1502246615.3,286047038.3,N
1502246635.1,286047038.2,N
1502246655.9,286047039.4,N
1502246675.7,286047038.6,N
1502246695.5,286047041.9,N
1502246715.3,286047044.2,N
1502246735.2,286047042.6,N
1502246755.0,286047040.6,N
1502246755.9,286047040.6,N
1502246775.7,286047044.2,N
1502246795.6,286047041.8,N
1502246815.4,286047043.5,N
1502246835.2,286047044.2,N
1502246855.1,286047041.6,N
1502246856.0,286047041.6,N
1502246875.8,286047041.8,N
1502246895.6,286047042.2,N
1502246915.5,286047044.1,N
1502246935.3,286047045.7,N
1502246955.1,286047046.6,N
1502246975.8,286047046.6,N
1502246995.7,286047047.1,N
1502247015.5,286047045.0,N
1502247035.3,286047049.2,N
1502247055.2,286047047.4,N
1502247075.9,286047050.4,N
1502247095.3,286047049.6,N
1502247115.1,286047049.8,N
1502247135.0,286047048.7,N
1502247135.9,286047048.7,N
1502247155.7,286047049.1,N
1502247175.6,286047046.3,N
1502247195.4,286047048.9,N
1502247215.2,286047047.9,N
1502247235.1,286047048.0,N
1502247236.0,286047048.0,N
1502247255.8,286047046.3,N
1502247275.6,286047048.9,N
1502247295.5,286047048.7,N
1502247315.3,286047048.9,N
1502247335.1,286047048.7,N
1502247355.9,286047049.9,N
1502247375.7,286047051.1,N
1502247395.5,286047052.2,N
1502247415.4,286047051.2,N
1502247435.2,286047051.1,N
1502247455.1,286047053.4,N
1502247456.0,286047053.4,N
1502247475.8,286047049.3,N
1502247495.6,286047050.3,N
1502247515.5,286047051.4,N
1502247535.3,286047052.7,N
1502247555.1,286047052.9,N
1502247575.8,286047051.3,N
1502247595.5,286047053.2,N
